Location: Unspecified
(42.9300°N, 71.1866°W)
Time: 04:10:22
(UTC-04:00)

CZ-3 Stage 3 - Visible Passes

Search period start: 22 September 2014 00:00
Search period end: 02 October 2014 00:00
Orbit: 410 x 34835 km, 30.8° (Epoch: 20 September)

Date Brightness Start Highest point End Pass type
(mag) Time Alt. Az. Time Alt. Az. Time Alt. Az.
22 Sep 8.3 00:00:00 13° SSE 05:30:35 45° SSE 05:56:10 10° E visible
22 Sep 8.9 23:41:39 10° SE 01:18:45 18° ESE 02:01:41 10° E visible
24 Sep 6.2 02:46:46 10° SSW 09:21:32 50° S 09:28:48 10° ESE visible
24 Sep 8.2 23:11:40 10° SSE 05:28:57 47° SSE 05:53:39 10° E visible
25 Sep 8.8 23:22:31 10° SE 01:16:23 19° ESE 02:02:01 10° E visible
27 Sep 6.1 07:31:51 10° WSW 09:18:51 50° SSW 09:25:58 10° ESE visible
27 Sep 8.1 22:58:25 10° SSE 05:27:07 48° SSE 05:50:59 10° E visible
28 Sep 8.7 23:04:10 10° SE 01:13:52 21° ESE 02:01:33 10° E visible
30 Sep 6.0 07:44:49 10° WSW 09:16:03 50° SSW 09:23:01 10° ESE visible
30 Sep 8.0 22:45:32 10° SSE 05:25:05 50° SSE 05:48:11 10° E visible
01 Oct 10.2 22:46:23 10° SE 00:00:00 18° SE 00:00:00 18° SE visible
